International Skating Union - Official Site

ISU World Cup Calgary
November 13-15, 2015

Draw | Lap Times | Index | World Cup

Referee: Jan  BOLT  (NED)
Starter: Mike  MAKOWSKY  (CAN)
StartTime: EndTime: Air Temp: Ice Temp: Humidity:
14:44 15:44 16.5℃ -7.5℃ 31%
Result 5000m Men Division A
Rankings as of Nov 15 2015 4:47PM
Rank: No.: Name: Nation: Time: Behind: Points:
1 92 Sven  Kramer NED NED 6:08.61200m - 18.29 - (18.2)
600m - 46.64 - (28.3)
1000m - 1:15.78 - (29.1)
1400m - 1:44.80 - (29.0)
1800m - 2:13.58 - (28.7)
2200m - 2:42.33 - (28.7)
2600m - 3:11.21 - (28.8)
3000m - 3:40.17 - (28.9)
3400m - 4:09.26 - (29.0)
3800m - 4:38.43 - (29.1)
4200m - 5:08.20 - (29.7)
4600m - 5:38.33 - (30.1)
5000m - 6:08.61 - (30.2)
100
2 85 Jorrit  Bergsma NED NED 6:10.44200m - 18.70 - (18.7)
600m - 47.50 - (28.8)
1000m - 1:16.62 - (29.1)
1400m - 1:45.74 - (29.1)
1800m - 2:14.95 - (29.2)
2200m - 2:44.16 - (29.2)
2600m - 3:13.27 - (29.1)
3000m - 3:42.40 - (29.1)
3400m - 4:11.70 - (29.3)
3800m - 4:41.11 - (29.4)
4200m - 5:10.75 - (29.6)
4600m - 5:40.39 - (29.6)
5000m - 6:10.44 - (30.0)
1.83 80
3 10 Ted-Jan  Bloemen CAN CAN 6:12.72200m - 18.73 - (18.7)
600m - 46.81 - (28.0)
1000m - 1:14.75 - (27.9)
1400m - 1:42.95 - (28.2)
1800m - 2:11.70 - (28.7)
2200m - 2:40.51 - (28.8)
2600m - 3:09.63 - (29.1)
3000m - 3:39.01 - (29.3)
3400m - 4:09.04 - (30.0)
3800m - 4:39.46 - (30.4)
4200m - 5:10.05 - (30.5)
4600m - 5:41.10 - (31.0)
5000m - 6:12.72 - (31.6)
4.11 70
4 42 Patrick  Beckert GER GER 6:13.14200m - 19.48 - (19.4)
600m - 48.43 - (28.9)
1000m - 1:17.94 - (29.5)
1400m - 1:47.61 - (29.6)
1800m - 2:17.17 - (29.5)
2200m - 2:46.80 - (29.6)
2600m - 3:16.45 - (29.6)
3000m - 3:46.11 - (29.6)
3400m - 4:15.52 - (29.4)
3800m - 4:44.99 - (29.4)
4200m - 5:14.37 - (29.3)
4600m - 5:43.75 - (29.3)
5000m - 6:13.14 - (29.3)
4.53 60
5 4 Bart  Swings BEL BEL 6:14.04200m - 18.86 - (18.8)
600m - 47.73 - (28.8)
1000m - 1:17.37 - (29.6)
1400m - 1:46.75 - (29.3)
1800m - 2:16.12 - (29.3)
2200m - 2:45.69 - (29.5)
2600m - 3:15.21 - (29.5)
3000m - 3:44.70 - (29.4)
3400m - 4:14.10 - (29.4)
3800m - 4:43.66 - (29.5)
4200m - 5:13.37 - (29.7)
4600m - 5:43.34 - (29.9)
5000m - 6:14.04 - (30.7)
5.43 50
6 88 Douwe  de Vries NED NED 6:17.16200m - 18.99 - (18.9)
600m - 48.50 - (29.5)
1000m - 1:17.91 - (29.4)
1400m - 1:47.14 - (29.2)
1800m - 2:16.57 - (29.4)
2200m - 2:46.20 - (29.6)
2600m - 3:16.25 - (30.0)
3000m - 3:46.12 - (29.8)
3400m - 4:16.29 - (30.1)
3800m - 4:46.54 - (30.2)
4200m - 5:16.89 - (30.3)
4600m - 5:47.08 - (30.1)
5000m - 6:17.16 - (30.0)
8.55 45
7 105 Sverre  Lunde Pedersen NOR NOR 6:17.53200m - 18.25 - (18.2)
600m - 46.92 - (28.6)
1000m - 1:15.91 - (28.9)
1400m - 1:44.96 - (29.0)
1800m - 2:13.90 - (28.9)
2200m - 2:42.98 - (29.0)
2600m - 3:12.24 - (29.2)
3000m - 3:41.31 - (29.0)
3400m - 4:10.65 - (29.3)
3800m - 4:40.28 - (29.6)
4200m - 5:11.06 - (30.7)
4600m - 5:43.21 - (32.1)
5000m - 6:17.53 - (34.3)
8.92 40
8 91 Erik Jan  Kooiman NED NED 6:17.95200m - 20.03 - (20.0)
600m - 49.28 - (29.2)
1000m - 1:18.63 - (29.3)
1400m - 1:48.18 - (29.5)
1800m - 2:17.74 - (29.5)
2200m - 2:47.02 - (29.2)
2600m - 3:16.57 - (29.5)
3000m - 3:46.37 - (29.8)
3400m - 4:16.28 - (29.9)
3800m - 4:46.41 - (30.1)
4200m - 5:16.80 - (30.3)
4600m - 5:47.16 - (30.3)
5000m - 6:17.95 - (30.7)
9.34 35
9 123 Aleksandr  Rumyantsev RUS RUS 6:21.38200m - 19.30 - (19.3)
600m - 49.01 - (29.7)
1000m - 1:18.68 - (29.6)
1400m - 1:48.44 - (29.7)
1800m - 2:18.06 - (29.6)
2200m - 2:48.04 - (29.9)
2600m - 3:17.91 - (29.8)
3000m - 3:47.78 - (29.8)
3400m - 4:17.80 - (30.0)
3800m - 4:47.93 - (30.1)
4200m - 5:18.48 - (30.5)
4600m - 5:49.64 - (31.1)
5000m - 6:21.38 - (31.7)
12.77 30
10 51 Andrea  Giovannini ITA ITA 6:21.77200m - 19.02 - (19.0)
600m - 48.89 - (29.8)
1000m - 1:18.73 - (29.8)
1400m - 1:48.58 - (29.8)
1800m - 2:18.47 - (29.8)
2200m - 2:48.40 - (29.9)
2600m - 3:18.51 - (30.1)
3000m - 3:48.96 - (30.4)
3400m - 4:19.29 - (30.3)
3800m - 4:49.76 - (30.4)
4200m - 5:20.40 - (30.6)
4600m - 5:51.20 - (30.8)
5000m - 6:21.77 - (30.5)
13.16 25
11 82 Seung-Hoon  Lee KOR KOR 6:21.88200m - 19.33 - (19.3)
600m - 48.81 - (29.4)
1000m - 1:18.47 - (29.6)
1400m - 1:48.18 - (29.7)
1800m - 2:18.18 - (30.0)
2200m - 2:48.11 - (29.9)
2600m - 3:18.50 - (30.3)
3000m - 3:48.93 - (30.4)
3400m - 4:19.61 - (30.6)
3800m - 4:50.50 - (30.8)
4200m - 5:21.11 - (30.6)
4600m - 5:51.90 - (30.7)
5000m - 6:21.88 - (29.9)
13.27 21
12 115 Jan  Szymanski POL POL 6:24.21200m - 18.99 - (18.9)
600m - 49.06 - (30.0)
1000m - 1:18.66 - (29.6)
1400m - 1:48.72 - (30.0)
1800m - 2:18.67 - (29.9)
2200m - 2:48.45 - (29.7)
2600m - 3:18.57 - (30.1)
3000m - 3:48.58 - (30.0)
3400m - 4:18.37 - (29.7)
3800m - 4:48.48 - (30.1)
4200m - 5:19.59 - (31.1)
4600m - 5:51.19 - (31.6)
5000m - 6:24.21 - (33.0)
15.60 18
13 127 Denis  Yuskov RUS RUS 6:24.43200m - 18.54 - (18.5)
600m - 47.10 - (28.5)
1000m - 1:15.96 - (28.8)
1400m - 1:45.51 - (29.5)
1800m - 2:15.03 - (29.5)
2200m - 2:44.61 - (29.5)
2600m - 3:14.00 - (29.3)
3000m - 3:44.10 - (30.1)
3400m - 4:15.91 - (31.8)
3800m - 4:48.31 - (32.4)
4200m - 5:21.25 - (32.9)
4600m - 5:52.86 - (31.6)
5000m - 6:24.43 - (31.5)
15.82 16
14 96 Wouter  olde Heuvel NED NED 6:25.92200m - 19.25 - (19.2)
600m - 48.72 - (29.4)
1000m - 1:18.71 - (29.9)
1400m - 1:48.47 - (29.7)
1800m - 2:18.37 - (29.9)
2200m - 2:48.52 - (30.1)
2600m - 3:18.63 - (30.1)
3000m - 3:49.14 - (30.5)
3400m - 4:19.81 - (30.6)
3800m - 4:51.04 - (31.2)
4200m - 5:22.44 - (31.4)
4600m - 5:53.96 - (31.5)
5000m - 6:25.92 - (31.9)
17.31 14
15 124 Yevgeny  Seryaev RUS RUS 6:31.39200m - 19.04 - (19.0)
600m - 48.27 - (29.2)
1000m - 1:17.43 - (29.1)
1400m - 1:46.96 - (29.5)
1800m - 2:17.19 - (30.2)
2200m - 2:47.41 - (30.2)
2600m - 3:17.89 - (30.4)
3000m - 3:48.96 - (31.0)
3400m - 4:20.31 - (31.3)
3800m - 4:52.26 - (31.9)
4200m - 5:24.81 - (32.5)
4600m - 5:57.87 - (33.0)
5000m - 6:31.39 - (33.5)
22.78 12
16 102 Håvard  Bøkko NOR NOR DNS 0